This is the latest recevied weather packets stored in our database for station/object YB3RDW-13. If no packets are shown the sender has not sent any weather packets the latest 10 day(s).
| Time | Temp. | Humidity | Pressure | Rain* | Wind** | Luminosity | Snow |
|---|---|---|---|---|---|---|---|
| 1777363317 | 30° C | 82% | 1008 hPa | 0 mm | - | 100 W/m² | - |
| 1777363017 | 30° C | 83% | 1008 hPa | 0 mm | - | 97 W/m² | - |
| 1777362718 | 30° C | 84% | 1008 hPa | 0 mm | - | 93 W/m² | - |
| 1777362417 | 30° C | 84% | 1008 hPa | 0 mm | - | 91 W/m² | - |
| 1777362118 | 30° C | 83% | 1008 hPa | 0 mm | - | 88 W/m² | - |
| 1777361819 | 30° C | 83% | 1008 hPa | 0 mm | - | 85 W/m² | - |
| 1777361517 | 30.56° C | 83% | 1008 hPa | 0 mm | - | 86 W/m² | - |
| 1777361222 | 30.56° C | 82% | 1008 hPa | 0 mm | - | 87 W/m² | - |
| 1777360918 | 30.56° C | 81% | 1008 hPa | 0 mm | - | 90 W/m² | - |
| 1777360617 | 30.56° C | 79% | 1008 hPa | 0 mm | - | 94 W/m² | - |
| 1777360318 | 30.56° C | 79% | 1008 hPa | 0 mm | - | 99 W/m² | - |
| 1777360017 | 31.11° C | 80% | 1008 hPa | 0 mm | - | 106 W/m² | - |
| 1777359717 | 30.56° C | 80% | 1008 hPa | 0 mm | - | 111 W/m² | - |
| 1777359418 | 31.11° C | 80% | 1009 hPa | 0 mm | - | 110 W/m² | - |
| 1777359117 | 31.11° C | 78% | 1008 hPa | 0 mm | - | 103 W/m² | - |
| 1777358818 | 31.11° C | 78% | 1008 hPa | 0 mm | - | 92 W/m² | - |
| 1777358517 | 31.67° C | 77% | 1008 hPa | 0 mm | - | 79 W/m² | - |
| 1777358217 | 31.67° C | 77% | 1008 hPa | 0 mm | - | 73 W/m² | - |
| 1777357918 | 31.67° C | 76% | 1009 hPa | 0 mm | - | 66 W/m² | - |
| 1777357617 | 32.22° C | 75% | 1009 hPa | 0 mm | - | 85 W/m² | - |
| 1777357317 | 33.33° C | 71% | 1009 hPa | 0 mm | - | 104 W/m² | - |
| 1777357018 | 33.89° C | 64% | 1009 hPa | 0 mm | - | 121 W/m² | - |
| 1777356718 | 33.33° C | 64% | 1009 hPa | 0 mm | - | 284 W/m² | - |
| 1777356418 | 33.89° C | 63% | 1009 hPa | 0 mm | - | 231 W/m² | - |
| 1777356117 | 33.89° C | 64% | 1009 hPa | 0 mm | - | 655 W/m² | - |
* Rain latest hour (hover to see other rain measurements)
** Current wind speed in m/s (hover to see current wind gust speed)